User: anonymous   Login
Location: Unspecified
(0.0000°N, 0.0000°E)
Time: 20:35:22
(UTC+02:00)
Language:

Atlas Centaur 2 - Orbit

View from above orbital plane
View from above orbital plane
View from above satellite
View from above satellite

Ground track
Ground track

The orbit data is extracted from the following two-line orbital elements,

1 00694U 63047A   15116.45563975  .00001435  00000-0  18015-3 0  9998
2 00694 030.3542 148.0875 0592726 085.6643 057.5299 14.00903460572811
Epoch (UTC): 26 April 2015 10:56:07
Eccentricity: 0.0592726
inclination: 30.3542°
perigee height: 460 km
apogee height: 1321 km
right ascension of ascending node: 148.0875°
argument of perigee: 85.6643°
revolutions per day: 14.00903460
mean anomaly at epoch: 57.5299°
orbit number at epoch: 57281

The dashed part of the orbit path shows where the satellite is in the earth's shadow,  

DLR